Location: Paris
(1.5528°N, 15.6406°E)
Time: 18:12:43
(UTC+00:00)

Daily predictions for brighter satellites

Satellite Brightness Start Highest point End
(mag) Time Altitude Azimuth Time Altitude Azimuth Time Altitude Azimuth
Ariane H10 4.0 17:13:02 10° W 17:17:03 79° S 17:39:16 10° E
ATLAS 3B R/B 2.6 17:13:42 10° SSW 17:20:08 82° ESE 17:27:00 10° NNE
Cosmos 1954 Rocket 4.0 17:15:01 10° N 17:20:14 66° ENE 17:25:26 10° SSE
SAR-Lupe-2 3.5 17:23:59 10° SSE 17:27:33 81° E 17:31:06 10° N
Cosmos 1782 Rocket 4.3 17:24:15 10° SSE 17:28:04 30° E 17:31:52 10° NNE
CZ-4B R/B 4.3 17:24:22 10° SE 17:28:45 29° ENE 17:33:00 10° NNE
COSMOS 2406 3.5 17:24:32 10° N 17:30:01 48° ENE 17:35:28 10° SSE
Cosmos 1992 Rocket 3.9 17:28:55 10° S 17:34:06 74° ESE 17:39:16 10° NNE
Cosmos 1908 Rocket 3.6 17:29:53 10° S 17:34:12 84° W 17:38:29 10° N
CZ-4 R/B 4.3 17:32:05 10° SSE 17:36:09 77° ENE 17:40:11 10° N
Cosmos 2184 Rocket 4.0 17:29:57 10° N 17:36:14 85° E 17:42:34 10° S
Cosmos 1607 3.9 17:31:53 10° NNW 17:38:10 87° ENE 17:44:18 10° SSE
Cosmos 2154 Rocket 4.0 17:32:49 10° N 17:38:58 68° E 17:45:09 10° S
ATLAS 5 CENTAUR R/B 4.4 17:38:11 10° W 17:39:54 13° WNW 17:41:32 10° NW
Cosmos 1378 Rocket 3.8 17:36:32 10° NNE 17:40:36 43° E 17:44:42 10° SSE
Cosmos 1953 2.5 17:38:32 10° S 17:42:20 72° W 17:46:07 10° N
Cosmos 1242 Rocket 1.9 17:40:26 10° N 17:43:22 68° E 17:46:20 10° SSE
SL-8 R/B 4.1 17:42:03 10° NW 17:46:45 63° SW 17:51:27 10° SSE
Cosmos 1300 Rocket 3.8 17:44:09 10° SSE 17:48:16 44° E 17:52:24 10° NNE
ARIANE 5 R/B 4.2 17:38:49 10° W 17:49:24 59° N 17:52:27 16° ENE
Cosmos 1455 2.4 17:52:11 10° SSW 17:55:42 65° W 17:59:13 10° N
Ariane 3 Deb 3.0 17:53:09 10° WSW 17:58:02 40° S 17:59:22 26° SE
Meteor PRIRODA 3.6 18:00:33 23° SE 18:02:20 48° E 18:05:38 10° N
Cosmos 2082 Rocket 2.8 17:57:02 10° NNW 18:02:36 58° WSW 18:08:07 10° S
CZ-4B R/B 3.7 18:04:51 28° ENE 18:04:51 28° ENE 18:07:51 10° NNE
Cosmos 2181 Rocket 3.9 17:59:01 10° S 18:05:08 81° E 18:11:17 10° N
Cosmos 2221 Rocket 3.5 18:01:55 10° N 18:06:25 81° E 18:10:56 10° S
ADEOS 3.6 18:01:37 10° SSE 18:06:43 55° ENE 18:11:47 10° N
ADEOS Rocket 2.7 18:01:42 10° SSE 18:07:41 74° ENE 18:13:13 10° N
ARIANE 5 DEB (SYLDA) 4.4 18:05:02 10° WSW 18:08:26 42° SSE 18:13:03 24° ESE
DELTA 2 DEB (DPAF) 3.9 18:05:59 10° NNE 18:10:09 65° ESE 18:14:21 10° S
ARIANE 44LP R/B 4.2 18:07:29 10° WSW 18:11:15 43° SSE 18:17:10 25° ESE
Cosmos 2098 Rocket 3.7 18:06:07 10° S 18:12:22 65° E 18:17:41 10° NNE
Cosmos 1892 2.8 18:09:40 10° N 18:12:41 45° ENE 18:12:41 45° ENE
Meteor 2-11 Rocket 4.5 18:07:22 10° N 18:13:24 83° W 18:19:29 10° S
Centaur D-1AR AC-36 4.4 18:11:45 10° NNW 18:13:51 13° N 18:16:59 10° NE
Ariane H10 3.9 18:17:03 10° W 18:20:28 70° S 18:24:44 31° ESE
SL-8 Rocket 4.0 18:18:40 10° NNE 18:24:37 52° E 18:27:31 29° SSE
Delta 142 4.5 18:29:55 10° SW 18:35:40 66° SSE 18:37:21 50° E
Cosmos 44 3.5 18:31:51 10° SSW 18:37:01 81° WNW 18:42:23 10° NNE
Cosmos 1825 3.7 18:35:25 10° N 18:37:03 26° NNW 18:37:03 26° NNW
ARIANE 5 DEB (SYLDA) 3.1 18:31:22 10° WSW 18:40:41 53° S 18:40:45 53° S
PAYLOAD B 4.4 18:41:57 53° NE 18:41:57 53° NE 18:46:40 10° N
Nadezhda 3 Rocket 3.8 18:36:53 10° S 18:43:00 70° E 18:49:05 10° N
USA 229 DEB 3.7 18:37:42 10° SSW 18:43:33 64° WNW 18:49:26 10° NNE
USA 229 3.6 18:37:54 10° SSW 18:43:41 65° WNW 18:49:32 10° NNE
Cosmos 1025 Rocket 3.9 18:40:53 10° N 18:43:41 40° N 18:43:41 40° N
YAOGAN 1 4.4 18:42:01 10° SSW 18:45:43 29° WSW 18:49:25 10° NW
Delta 7925 Rocket 4.1 18:42:02 10° NW 18:47:17 51° NNE 18:47:25 51° NE
Cosmos 2341 Rocket 4.0 18:43:20 10° N 18:49:31 77° W 18:53:54 21° S
Cosmos 968 Rocket 3.6 18:49:19 10° NNW 18:53:54 70° NW 18:53:54 70° NW
Cosmos 2366 rocket 3.9 18:51:41 10° N 18:58:00 84° W 18:59:19 59° S
Cosmos 1656 4.5 19:03:18 10° SSW 19:08:44 48° WNW 19:14:06 10° N
Cosmos 2218 Rocket 4.2 19:04:31 10° NNW 19:10:45 66° W 19:11:27 61° SW
MAQSAT/ARIANE V 4.3 18:52:40 10° W 19:47:02 64° NNW 19:47:02 64° NNW
ARIANE 5 R/B 4.2 19:28:36 10° W 19:54:29 48° SW 19:54:29 48° SW
